Location: Althorst
(53.6379°N, 10.7715°E)
Time: 00:14:49
(UTC+00:00)

Cosmos 2360 Rocket - Pass Details

Date: 10 December 2019
Orbit: 833 x 846 km, 71.0° (Epoch: 18 January)

Event Time Altitude Azimuth Distance (km) Brightness Sun altitude
Rises 17:10:49 0° 253° (WSW) 3,399 7.1 -18.4°
Reaches altitude 10° 17:13:37 10° 265° (W) 2,469 5.9 -18.8°
Maximum altitude 17:18:27 28° 323° (NW) 1,546 3.8 -19.5°
Enters shadow 17:22:36 13° 18° (NNE) 2,270 4.2 -20.2°
